Powrót do katalogu

MARAFON NO. 2 GMM

AktywnyŁącznośćSSO
NORAD 67251·PAYLOAD·🇹🇷 Turkey
Ta nazwa satelity nie została jeszcze potwierdzona przez oficjalne źródła.

Wystrzelony Dec 28, 2025 z Vostochny Cosmodrome

Loading…

Następne Przeloty (najbliższe 24 godziny)

TLE

ŚwieżeSource: Space-Track

Epoka: Sep 14, 2026, 03:18 UTC

1 67251U 25313D   26257.13797768  .00001731  00000-0  15109-3 0  9996
2 67251  97.5606 323.6695 0148474  31.9638 329.0481 14.89988251 38641

Śledź MARAFON NO. 2 GMM w czasie rzeczywistym z AllMySat

Download on the App Store